Weather History for Merida, Mexico

Change the Weather History Date:

Monday, November 12, 2012

  Actual Average Record
Temperature  
Mean Temperature 78 °F -  
Max Temperature 91 °F 86 °F 93 °F (1997)
Min Temperature 65 °F 68 °F 59 °F (2005)
Cooling Degree Days 13    
Growing Degree Days 28 (Base 50)    
Moisture  
Dew Point 62 °F    
Average Humidity 61    
Maximum Humidity 86    
Minimum Humidity 29    
Precipitation  
Precipitation 0.00 in - - ()
Sea Level Pressure  
Sea Level Pressure 30.05 in    
Wind  
Wind Speed 5 mph ()    
Max Wind Speed 14 mph    
Max Gust Speed 23 mph    
Visibility 6.5 miles    
Events      
Averages and records for this station are not official NWS values.
T = Trace of Precipitation, MM = Missing Value Source: Averaged Metar Reports

Daily Weather History Graph

Daily Weather History Graph

Search for Another Location

Airport:

Trip Planner

Search our weather history database for the weather conditions in past years. The results will help you decide how hot, cold, wet, or windy it might be!

Date:

Astronomy

Nov. 12, 2012 Rise Set
Actual Time 6:07 AM CST 5:18 PM CST
Civil Twilight 5:44 AM CST 5:41 PM CST
Nautical Twilight 5:17 AM CST 6:08 PM CST
Astronomical Twilight 4:50 AM CST 6:34 PM CST
Moon 4:39 AM CST (11/12) 4:19 PM CST (11/12)
Length of Visible Light 11h 57m
Length of Day
11h 10m
Waning Crescent, 2% of the Moon is Illuminated
Nov 12
Waning Crescent
Nov 13
New
Nov 20
First Quarter
Nov 28
Full
Dec 6
Last Quarter

Hourly Weather History & Observations

Time (CST) Temp. Heat Index Dew Point Humidity Pressure Visibility Wind Dir Wind Speed Gust Speed Precip Events Conditions
12:46 AM 68.0 °F - 62.6 °F 83% 30.02 in 7.0 mi Calm Calm - N/A   Clear
1:51 AM 68.0 °F - 62.6 °F 83% 29.99 in 7.0 mi Calm Calm - N/A   Clear
2:58 AM 69.8 °F - 62.6 °F 78% 30.12 in 7.0 mi East 5.8 mph - N/A   Clear
3:51 AM 68.0 °F - 62.6 °F 83% 29.99 in 7.0 mi East 8.1 mph - N/A   Clear
4:52 AM 68.0 °F - 62.6 °F 83% 30.00 in 7.0 mi ESE 5.8 mph - N/A   Clear
5:50 AM 68 °F - 65 °F 86% 30.05 in 3 mi ESE 2.2 mph - -  
5:51 AM 68.0 °F - 62.6 °F 83% 30.03 in 7.0 mi Calm Calm - N/A   Clear
6:45 AM 69.8 °F - 62.6 °F 78% 30.07 in 7.0 mi Calm Calm - N/A   Clear
7:44 AM 75.2 °F - 62.6 °F 65% 30.08 in 7.0 mi East 8.1 mph - N/A   Clear
8:45 AM 78.8 °F - 62.6 °F 57% 30.10 in 7.0 mi East 9.2 mph - N/A   Clear
9:44 AM 82.4 °F 82.9 °F 60.8 °F 48% 30.12 in 7.0 mi East 9.2 mph - N/A   Partly Cloudy
10:45 AM 86.0 °F 84.5 °F 55.4 °F 35% 30.08 in 7.0 mi East 5.8 mph - N/A   Scattered Clouds
11:46 AM 87.8 °F 85.7 °F 53.6 °F 31% 30.06 in 7.0 mi East 10.4 mph - N/A   Mostly Cloudy
11:50 AM 89 °F - 64 °F 33% 30.05 in 6 mi ENE 6.7 mph - -   Partly Cloudy
12:45 PM 89.6 °F 87.3 °F 53.6 °F 29% 30.01 in 7.0 mi East 6.9 mph - N/A   Mostly Cloudy
1:46 PM 89.6 °F 87.3 °F 53.6 °F 29% 29.99 in 7.0 mi ENE 6.9 mph - N/A   Scattered Clouds
2:47 PM 86.0 °F - 51.8 °F 31% 30.01 in 7.0 mi North 11.5 mph - N/A   Scattered Clouds
2:50 PM 87 °F - 62 °F 33% 29.99 in 6 mi NNE 8.9 mph - -   Scattered Clouds
3:45 PM 84.2 °F 83.0 °F 55.4 °F 37% 29.99 in 7.0 mi North 11.5 mph 23.0 mph N/A   Scattered Clouds
4:43 PM 80.6 °F 80.8 °F 57.2 °F 45% 30.01 in 7.0 mi North 13.8 mph - N/A   Scattered Clouds
5:45 PM 77.0 °F - 60.8 °F 57% 30.04 in 7.0 mi NE 8.1 mph - N/A   Scattered Clouds
5:50 PM 80 °F - 66 °F 53% 30.03 in 6 mi NNE 11.2 mph - -   Partly Cloudy
6:45 PM 77.0 °F - 64.4 °F 65% 30.05 in 7.0 mi NNE 8.1 mph - N/A   Clear
7:43 PM 75.2 °F - 66.2 °F 73% 30.07 in 7.0 mi NE 10.4 mph - N/A   Clear
8:47 PM 75.2 °F - 66.2 °F 73% 30.09 in 7.0 mi ENE 9.2 mph - N/A   Clear
8:50 PM 75 °F - 67 °F 71% 30.06 in 3 mi NNE 8.9 mph - -   Scattered Clouds
9:47 PM 73.4 °F - 66.2 °F 78% 30.08 in 7.0 mi ENE 11.5 mph - N/A   Clear
10:45 PM 73.4 °F - 64.4 °F 73% 30.09 in 7.0 mi East 10.4 mph - N/A   Clear
11:47 PM 73.4 °F - 66.2 °F 78% 30.09 in 7.0 mi ENE 4.6 mph - N/A   Clear
11:50 PM 73 °F - 68 °F 78% 30.09 in 3 mi ENE 11.2 mph - -   Scattered Clouds